Weather History for Jackson, WY

Change the Weather History Date:

Sunday, September 15, 2013

  Actual Average Record
Temperature  
Mean Temperature 57 °F -  
Max Temperature 66 °F 67 °F 88 °F (1990)
Min Temperature 48 °F 30 °F 19 °F (1970)
Degree Days  
Heating Degree Days 8    
Growing Degree Days 7 (Base 50)    
Moisture  
Dew Point 49 °F    
Average Humidity 79    
Maximum Humidity 100    
Minimum Humidity 52    
Precipitation  
Precipitation 0.00 in - - ()
Sea Level Pressure  
Sea Level Pressure 30.19 in    
Wind  
Wind Speed 6 mph (North)    
Max Wind Speed 13 mph    
Max Gust Speed 20 mph    
Visibility 10 miles    
Events      
Averages and records for this station are not official NWS values.
T = Trace of Precipitation, MM = Missing Value Source: NWS Daily Summary

Daily Weather History Graph

Daily Weather History Graph

Search for Another Location

Airport:

Trip Planner

Search our weather history database for the weather conditions in past years. The results will help you decide how hot, cold, wet, or windy it might be!

Date:

Astronomy

Sep. 15, 2013 Rise Set
Actual Time 7:02 AM MDT 7:32 PM MDT
Civil Twilight 6:33 AM MDT 8:01 PM MDT
Nautical Twilight 5:59 AM MDT 8:35 PM MDT
Astronomical Twilight 5:24 AM MDT 9:10 PM MDT
Moon 5:07 PM MDT (9/15) 2:38 AM MDT (9/15)
Length of Visible Light 13h 27m
Length of Day
12h 29m
Waxing Gibbous, 82% of the Moon is Illuminated
Sep 15
Waxing Gibbous
Sep 19
Full
Sep 26
Last Quarter
Oct 4
New
Oct 11
First Quarter

Hourly Weather History & Observations

Time (MDT) Temp. Dew Point Humidity Pressure Visibility Wind Dir Wind Speed Gust Speed Precip Events Conditions
12:15 AM 57.2 °F 46.4 °F 67% 30.15 in 10.0 mi North 5.8 mph - N/A   Mostly Cloudy
12:35 AM 57.2 °F 46.4 °F 67% 30.15 in 10.0 mi North 8.1 mph - N/A   Overcast
12:55 AM 55.4 °F 46.4 °F 72% 30.16 in 10.0 mi North 9.2 mph - N/A   Overcast
1:15 AM 55.4 °F 46.4 °F 72% 30.16 in 10.0 mi North 9.2 mph - N/A   Mostly Cloudy
1:35 AM 55.4 °F 46.4 °F 72% 30.16 in 10.0 mi North 6.9 mph - N/A   Mostly Cloudy
1:55 AM 55.4 °F 46.4 °F 72% 30.16 in 10.0 mi North 8.1 mph - N/A   Overcast
2:15 AM 55.4 °F 46.4 °F 72% 30.17 in 10.0 mi North 10.4 mph - N/A   Overcast
2:35 AM 55.4 °F 46.4 °F 72% 30.17 in 10.0 mi North 9.2 mph - N/A   Overcast
2:55 AM 55.4 °F 46.4 °F 72% 30.16 in 10.0 mi North 4.6 mph - N/A   Overcast
3:15 AM 57.2 °F 46.4 °F 67% 30.16 in 10.0 mi NE 8.1 mph - N/A   Overcast
3:55 AM 57.2 °F 46.4 °F 67% 30.17 in 10.0 mi North 3.5 mph - N/A   Overcast
4:15 AM 55.4 °F 46.4 °F 72% 30.17 in 10.0 mi North 8.1 mph - N/A   Mostly Cloudy
4:35 AM 55.4 °F 46.4 °F 72% 30.18 in 10.0 mi NNE 4.6 mph - N/A   Mostly Cloudy
4:55 AM 55.4 °F 46.4 °F 72% 30.18 in 10.0 mi North 9.2 mph - N/A   Overcast
5:15 AM 55.4 °F 46.4 °F 72% 30.18 in 10.0 mi South 4.6 mph - N/A   Overcast
5:35 AM 53.6 °F 48.2 °F 82% 30.18 in 10.0 mi Calm Calm - N/A   Mostly Cloudy
5:55 AM 51.8 °F 48.2 °F 88% 30.18 in 10.0 mi Calm Calm - N/A   Mostly Cloudy
6:15 AM 48.2 °F 46.4 °F 93% 30.19 in 10.0 mi Calm Calm - N/A   Mostly Cloudy
6:35 AM 50.0 °F 48.2 °F 94% 30.19 in 10.0 mi Calm Calm - N/A   Overcast
6:51 AM 48.2 °F 48.2 °F 100% 30.19 in 10.0 mi Calm Calm - N/A   Scattered Clouds
7:51 AM 50.0 °F 48.2 °F 94% 30.21 in 10.0 mi Calm Calm - N/A   Mostly Cloudy
8:51 AM 51.8 °F 51.8 °F 100% 30.22 in 10.0 mi Calm Calm - N/A   Mostly Cloudy
9:51 AM 53.6 °F 51.8 °F 94% 30.23 in 10.0 mi Calm Calm - N/A   Overcast
10:51 AM 57.2 °F 51.8 °F 82% 30.24 in 10.0 mi North 11.5 mph 17.3 mph N/A   Mostly Cloudy
11:51 AM 64.4 °F 51.8 °F 64% 30.21 in 10.0 mi North 11.5 mph - N/A   Mostly Cloudy
12:51 PM 64.4 °F 48.2 °F 56% 30.22 in 10.0 mi NNE 5.8 mph - N/A   Mostly Cloudy
1:55 PM 66.2 °F 48.2 °F 52% 30.20 in 10.0 mi Calm Calm - N/A   Mostly Cloudy
2:53 PM 62.6 °F 46.4 °F 55% 30.21 in 10.0 mi South 12.7 mph 19.6 mph N/A   Overcast
3:51 PM 60.8 °F 48.2 °F 63% 30.20 in 10.0 mi Calm Calm - N/A   Mostly Cloudy
4:52 PM 59.0 °F 53.6 °F 82% 30.19 in 10.0 mi NNW 6.9 mph - N/A   Mostly Cloudy
5:51 PM 62.6 °F 51.8 °F 68% 30.19 in 10.0 mi North 9.2 mph - N/A   Overcast
6:54 PM 60.8 °F 51.8 °F 72% 30.18 in 10.0 mi NNW 6.9 mph - N/A   Mostly Cloudy
7:53 PM 57.2 °F 51.8 °F 82% 30.18 in 10.0 mi North 9.2 mph - N/A   Scattered Clouds
9:15 PM 53.6 °F 51.8 °F 94% 30.20 in 10.0 mi Calm Calm - N/A   Clear
9:35 PM 53.6 °F 51.8 °F 94% 30.20 in 10.0 mi West 3.5 mph - N/A   Clear
9:55 PM 53.6 °F 50.0 °F 88% 30.20 in 8.0 mi Calm Calm - N/A   Mostly Cloudy
10:15 PM 53.6 °F 51.8 °F 94% 30.20 in 10.0 mi NE 3.5 mph - N/A   Overcast
10:35 PM 53.6 °F 50.0 °F 88% 30.20 in 10.0 mi Calm Calm - N/A   Overcast
11:15 PM 51.8 °F 50.0 °F 94% 30.20 in 10.0 mi Calm Calm - N/A   Scattered Clouds
11:35 PM 51.8 °F 50.0 °F 94% 30.20 in 10.0 mi Calm Calm - N/A   Overcast
11:55 PM 50.0 °F 48.2 °F 94% 30.20 in 10.0 mi Calm Calm - N/A   Overcast